Location: Long Geng
(2.6167°N, 114.1333°E)
Time: 23:53:20
(UTC+00:00)

Cosmos 2333 Rocket - Pass Details

Date: 14 May 2021
Orbit: 839 x 863 km, 70.8° (Epoch: 12 June)

Event Time Altitude Azimuth Distance (km) Brightness Sun altitude
Exits shadow 20:56:45 32° 256° (WSW) 1,426 2.8 -18.7°
Maximum altitude 20:58:08 37° 286° (WNW) 1,311 2.8 -18.4°
Drops below altitude 10° 21:03:22 10° 352° (N) 2,488 4.8 -17.2°
Sets 21:06:00 0° 0° (N) 3,424 5.6 -16.5°
